Location: Pilipovskiye Korichintsy
(49.1833°N, 27.4667°E)
Time: 22:41:08
(UTC+00:00)

ERS-2 - Pass Details

Date: 14 July 2020
Orbit: 494 x 498 km, 98.5° (Epoch: 10 August)

Event Time Altitude Azimuth Distance (km) Brightness Sun altitude
Rises 00:55:03 0° 144° (SE) 2,572 5.6 -10.8°
Reaches altitude 10° 00:57:12 10° 136° (SE) 1,693 4.7 -10.6°
Maximum altitude 01:00:35 37° 68° (ENE) 782 3.7 -10.3°
Drops below altitude 10° 01:03:59 10° 0° (N) 1,704 5.6 -9.9°
Sets 01:06:09 0° 352° (N) 2,592 6.5 -9.7°
